Terminal Aerodrome Forecast
Issued by NWS

Home | Current Version | Previous Version | Text Only | Print | Product List | Glossary On
Versions: 1 2 3 4 5 6 7 8 9 10 11 12 13 14 15 16 17 18 19 20 21
000
FTUS44 KSJT 210500
TAFSOA
TAF
KSOA 210525Z 2106/2206 VRB03KT P6SM BKN100
     FM210800 VRB03KT P6SM OVC015
     FM211700 10007KT P6SM OVC050
     FM212000 09008KT P6SM BKN100=

USA.gov is the U.S. government's official web portal to all federal, state and local government web resources and services.